Wind_Speed
27 28 29 29 30 30 31 32 32 32 32 33 34 33 32 32 33 33 33 33 33 34 34 35 35 36 37 37 38 40 41 42 43 43 43 44 45 45 44 43 44 45 45 44
27 28 29 29 30 30 30 31 32 32 33 33 34 33 33 33 33 33 33 33 33 34 34 34 35 36 37 38 38 39 41 42 43 44 44 45 46 45 45 45 45 46 46 46
26 27 27 28 29 30 30 31 31 32 33 34 34 34 32 32 33 34 33 33 32 32 33 33 34 35 37 38 38 39 40 41 42 44 45 45 46 46 45 46 46 47 48 49
25 26 26 27 28 29 29 30 30 30 31 32 32 34 32 33 33 33 33 33 32 32 33 33 34 34 35 37 38 39 39 41 42 44 45 45 46 46 46 46 46 47 48 49
24 24 25 25 26 27 28 29 29 29 29 29 29 32 32 31 31 32 32 33 33 34 34 34 34 34 35 36 37 39 40 41 42 43 45 45 46 46 47 47 48 48 48 49
23 23 23 24 25 26 27 28 28 28 28 29 28 30 31 30 30 30 31 32 32 33 33 34 35 35 35 36 37 38 39 40 41 42 44 45 46 46 47 48 49 49 49 49
21 22 23 23 24 24 25 26 27 28 28 28 26 28 28 28 29 29 29 29 31 32 32 33 35 35 35 36 37 37 38 39 40 41 42 43 45 47 47 48 49 49 50 50
20 21 21 22 22 23 24 24 25 26 26 25 24 25 24 24 25 27 28 28 29 30 31 31 32 33 34 35 36 37 37 37 38 39 40 42 44 46 47 48 49 50 50 51
20 21 21 21 21 22 22 21 21 22 23 23 23 23 22 23 24 25 26 28 28 29 29 29 29 31 32 33 34 35 36 37 37 38 39 41 43 45 46 46 47 49 50 51
20 21 20 20 20 20 20 20 20 20 21 22 22 21 22 22 24 25 26 27 28 28 29 29 29 30 30 32 33 34 35 36 37 38 38 39 41 43 45 46 47 48 50 51
20 20 21 21 20 19 19 19 19 21 22 23 24 22 21 23 24 24 24 25 26 27 28 29 29 29 30 31 32 33 34 35 36 37 38 38 40 42 43 44 45 46 48 49
19 19 19 19 19 18 18 18 19 20 22 22 23 22 22 22 23 24 25 25 26 27 28 29 29 29 29 30 31 32 33 35 36 36 37 38 39 40 41 42 44 45 46 46
18 18 18 17 18 18 18 18 19 20 21 21 21 21 20 21 22 23 24 24 25 25 26 27 28 29 29 31 32 32 33 34 35 36 36 36 37 37 39 41 42 43 43 44
17 18 18 18 18 17 18 19 20 21 22 21 21 21 21 21 21 21 22 23 23 23 24 25 26 27 28 30 31 32 33 34 34 34 34 35 36 37 37 38 39 40 41 41
16 17 17 18 18 18 18 19 20 21 22 22 21 21 21 21 20 20 20 21 22 22 23 23 24 25 26 28 30 31 32 32 32 33 34 34 35 35 35 36 37 38 38 38
16 16 17 17 18 18 18 19 19 19 20 21 21 20 20 20 20 19 20 20 21 21 22 22 23 24 25 26 27 28 29 30 30 31 32 33 33 33 33 34 35 36 37 37
15 16 16 16 17 17 17 17 18 18 18 19 20 20 20 20 20 20 20 19 19 20 21 22 23 24 25 26 26 27 27 28 29 30 30 30 30 31 32 32 32 33 34 35
15 15 15 15 15 16 15 16 17 17 17 18 19 20 21 20 20 20 20 19 19 20 21 22 23 23 24 24 25 26 27 27 28 27 27 28 28 28 29 30 30 31 32 33
15 15 15 15 15 15 15 16 16 17 17 17 18 19 20 21 20 20 20 20 21 21 21 22 22 22 22 23 24 25 25 26 26 26 26 26 26 27 28 28 28 29 30 29
15 15 15 15 16 16 16 16 17 17 17 17 18 19 20 20 20 20 20 20 21 21 21 21 21 21 22 22 22 23 24 24 23 23 24 25 25 26 26 26 26 26 26 26
15 16 16 16 16 16 15 16 16 17 17 17 18 18 19 20 20 20 20 20 21 21 22 21 22 22 22 22 22 23 23 23 23 24 24 24 24 24 24 24 24 23 23 23
16 16 16 16 16 15 15 16 17 17 17 17 17 18 19 19 19 20 21 21 21 21 21 21 21 21 21 22 22 22 21 22 22 22 23 22 22 22 22 22 21 21 21 20
15 16 16 16 16 16 16 17 17 17 17 18 18 19 19 19 19 20 20 21 21 20 21 21 21 21 21 21 21 20 20 20 20 20 20 20 20 21 21 20 19 19 19 19
14 15 17 17 17 17 17 17 18 18 19 19 20 20 20 20 19 20 20 20 20 21 21 21 21 21 21 21 20 19 19 18 18 18 18 18 18 18 18 17 17 17 17 17
15 16 17 18 18 18 18 18 19 19 19 19 19 20 19 19 19 20 20 20 20 21 20 21 21 21 21 20 19 18 17 17 17 17 17 16 15 15 15 15 15 15 15 15
16 17 18 18 19 19 19 19 19 19 19 19 19 19 19 19 19 20 20 20 20 20 20 20 20 20 20 19 18 17 16 16 16 15 14 14 14 14 14 13 13 13 13 13
Wind_Direction
263 261 261 259 258 260 260 260 260 260 260 260 259 258 258 258 258 259 258 257 256 255 255 255 254 254 254 254 253 252 252 252 252 253 254 254 254 255 256 255 254 255 257 260
262 260 259 258 260 260 261 263 263 262 261 261 260 258 258 257 257 256 256 256 256 256 256 256 256 256 256 255 255 254 254 253 254 255 255 256 256 257 257 255 256 257 258 260
263 262 260 259 260 260 261 263 263 263 263 262 261 260 259 258 257 256 256 257 257 258 257 256 258 258 258 257 257 257 256 255 255 256 256 257 257 258 257 257 258 258 259 260
265 263 262 261 261 261 262 263 264 264 264 262 262 263 259 258 257 256 257 257 258 259 259 259 260 260 259 258 257 258 258 258 257 257 257 258 258 258 258 258 258 259 260 261
268 265 264 263 263 264 265 265 265 264 263 262 261 263 262 261 258 256 257 258 259 260 260 260 261 260 259 258 258 259 258 258 258 258 258 258 259 259 259 259 259 260 261 262
270 268 267 266 266 266 267 266 265 264 263 264 264 264 264 262 260 259 259 259 259 260 261 261 261 261 260 260 260 259 260 260 260 259 259 258 258 259 260 260 261 262 262 263
269 268 268 268 268 268 267 267 266 264 262 265 265 264 263 262 261 261 261 260 261 262 263 262 262 262 261 262 262 260 261 262 262 261 261 260 259 259 260 261 262 263 264 265
271 270 269 270 271 271 270 268 267 266 264 264 262 261 261 261 263 264 264 265 265 264 264 264 262 262 262 262 262 261 261 262 262 263 263 262 260 260 261 262 262 263 264 265
273 271 270 272 272 272 271 268 268 268 265 265 264 263 263 263 266 267 268 268 267 266 265 264 264 262 261 262 262 262 262 263 264 264 265 265 262 261 262 263 263 264 265 265
274 273 271 272 273 272 271 269 268 268 269 268 266 267 268 267 269 269 269 270 268 266 266 265 265 265 263 263 263 264 264 265 265 265 266 267 265 264 264 264 265 266 267 267
275 274 273 273 272 271 269 266 266 267 267 271 272 272 275 273 274 273 272 271 269 268 267 266 266 266 266 266 265 265 266 266 267 267 268 269 267 266 267 267 267 268 268 268
277 275 275 274 273 269 267 265 265 268 270 272 274 275 277 277 276 274 272 272 271 269 268 268 269 269 268 268 268 267 266 268 269 270 270 271 270 269 268 268 269 269 269 270
278 276 276 274 272 268 266 266 268 269 270 272 275 278 280 280 278 275 274 275 275 273 272 271 271 270 269 270 270 270 269 270 271 272 271 272 271 272 270 270 271 271 271 271
279 278 278 277 276 271 268 269 271 269 270 273 276 277 278 278 277 277 278 279 277 277 277 276 275 275 273 273 273 273 272 274 274 273 273 273 273 274 274 272 272 271 271 272
282 281 279 279 276 270 269 271 272 271 271 274 278 277 276 277 279 280 280 281 279 279 279 280 280 279 277 276 276 277 275 276 276 275 274 274 275 276 277 275 273 272 272 272
280 281 282 280 276 270 269 269 272 273 273 274 276 277 276 276 278 281 283 284 282 281 281 282 283 281 280 280 280 280 279 278 276 276 277 276 276 276 277 277 275 274 273 273
281 282 284 281 278 272 270 270 272 274 275 276 275 275 277 278 278 281 284 286 285 284 284 285 286 284 282 281 282 282 280 279 278 279 278 276 276 277 278 279 277 275 274 274
283 283 283 283 279 275 276 273 275 276 276 276 277 277 278 279 279 281 283 286 287 288 287 288 288 287 286 284 284 283 283 281 280 279 278 277 279 278 278 280 280 278 276 276
282 283 282 282 279 277 277 278 279 278 278 277 278 279 280 279 280 282 284 286 287 287 289 291 290 290 290 288 287 285 285 284 280 279 280 281 281 281 281 281 281 280 278 277
281 281 282 283 281 280 280 280 282 281 281 281 281 281 282 282 282 282 283 286 287 288 291 292 293 293 292 292 290 289 289 287 283 282 283 283 283 284 284 283 282 282 280 278
279 280 282 283 284 282 282 282 284 285 286 285 283 284 286 285 286 284 285 288 289 289 291 292 294 296 295 295 295 294 291 289 285 284 284 284 286 287 286 285 284 283 282 280
281 281 282 283 285 285 283 283 284 287 288 288 287 287 288 288 288 287 287 290 291 292 293 294 295 296 298 298 298 297 294 290 287 286 286 286 288 290 289 287 286 284 282 281
283 281 279 282 285 284 284 285 286 288 290 290 290 290 290 289 288 288 290 292 291 291 293 296 296 298 300 299 300 298 297 294 290 289 287 286 288 290 290 287 285 283 282 280
285 282 278 280 283 284 284 286 288 289 290 291 290 290 290 289 289 288 290 292 291 292 293 295 297 299 300 300 300 298 297 296 296 296 296 294 292 292 292 288 285 285 283 283
284 283 281 279 281 282 285 287 288 289 291 291 291 290 289 288 289 289 290 291 291 293 293 295 297 299 301 300 299 299 297 295 297 300 300 299 300 297 293 292 289 286 285 285
281 284 287 284 281 283 286 287 287 289 291 291 290 289 289 289 289 290 291 292 291 292 293 295 296 298 300 300 298 299 300 300 300 301 301 300 301 301 298 297 296 294 294 290
Height
5684 5685 5685 5686 5686 5687 5687 5687 5688 5689 5689 5689 5690 5691 5693 5693 5693 5693 5694 5694 5695 5696 5697 5698 5699 5700 5701 5703 5704 5706 5708 5709 5710 5712 5713 5715 5716 5717 5718 5719 5721 5723 5724 5724
5677 5677 5678 5678 5678 5679 5679 5679 5680 5681 5680 5680 5680 5682 5683 5684 5684 5684 5685 5685 5686 5687 5688 5689 5690 5690 5692 5693 5694 5696 5697 5699 5700 5702 5703 5704 5705 5707 5708 5709 5710 5712 5713 5714
5669 5670 5670 5670 5670 5671 5671 5672 5672 5672 5672 5671 5671 5673 5675 5675 5675 5675 5676 5677 5678 5679 5680 5680 5681 5681 5682 5684 5685 5686 5687 5688 5690 5691 5692 5693 5694 5695 5697 5698 5699 5701 5702 5702
5662 5662 5662 5662 5663 5663 5663 5663 5663 5663 5663 5663 5664 5662 5666 5666 5666 5667 5668 5668 5669 5670 5671 5671 5672 5672 5673 5674 5675 5676 5677 5678 5679 5680 5681 5682 5683 5685 5686 5687 5687 5688 5689 5690
5655 5655 5655 5655 5656 5655 5655 5655 5655 5654 5654 5654 5655 5654 5656 5657 5657 5658 5659 5659 5660 5661 5662 5662 5663 5663 5664 5664 5665 5666 5667 5668 5668 5669 5670 5671 5672 5673 5674 5674 5675 5676 5677 5677
5649 5648 5648 5648 5648 5648 5647 5647 5647 5646 5646 5646 5648 5646 5647 5648 5649 5650 5650 5650 5651 5651 5652 5653 5653 5653 5654 5654 5655 5656 5656 5657 5658 5658 5659 5659 5660 5661 5662 5662 5663 5663 5664 5664
5643 5643 5642 5641 5641 5640 5640 5640 5639 5638 5638 5639 5639 5638 5640 5640 5640 5641 5641 5641 5642 5642 5642 5643 5643 5643 5644 5645 5645 5645 5646 5646 5647 5647 5647 5648 5648 5649 5649 5649 5650 5651 5651 5652
5637 5637 5636 5635 5634 5633 5633 5633 5633 5632 5631 5632 5632 5631 5633 5633 5632 5632 5632 5633 5633 5633 5633 5633 5633 5633 5634 5634 5634 5635 5635 5635 5636 5636 5636 5636 5636 5636 5636 5636 5637 5637 5638 5638
5630 5630 5630 5628 5627 5627 5626 5626 5626 5625 5624 5625 5625 5626 5627 5626 5625 5625 5624 5624 5624 5624 5624 5624 5624 5624 5624 5624 5624 5624 5624 5625 5625 5624 5624 5624 5623 5624 5624 5624 5624 5624 5624 5624
5624 5624 5624 5623 5622 5621 5621 5620 5620 5619 5619 5619 5619 5620 5620 5619 5619 5618 5617 5616 5615 5615 5615 5615 5615 5615 5615 5614 5614 5614 5614 5614 5613 5613 5612 5612 5612 5611 5611 5611 5611 5611 5610 5610
5618 5618 5617 5617 5616 5615 5615 5615 5614 5614 5614 5613 5613 5616 5613 5612 5611 5610 5609 5608 5607 5607 5606 5606 5606 5606 5605 5605 5604 5604 5604 5603 5603 5602 5601 5600 5600 5599 5599 5598 5598 5597 5596 5596
5612 5611 5611 5611 5610 5609 5609 5609 5609 5609 5608 5607 5606 5610 5606 5605 5604 5603 5601 5600 5599 5598 5598 5598 5597 5597 5596 5596 5595 5594 5594 5593 5593 5591 5591 5589 5588 5587 5587 5586 5585 5584 5583 5582
5606 5606 5605 5605 5606 5605 5604 5604 5603 5603 5603 5602 5601 5604 5600 5598 5597 5596 5594 5593 5592 5591 5590 5589 5589 5588 5588 5587 5586 5585 5585 5584 5582 5581 5580 5579 5577 5576 5575 5574 5573 5571 5570 5569
5601 5601 5601 5601 5599 5598 5598 5599 5598 5597 5596 5596 5596 5595 5594 5592 5591 5589 5588 5587 5585 5584 5583 5582 5581 5580 5579 5578 5577 5576 5575 5574 5573 5571 5570 5569 5567 5566 5564 5562 5561 5559 5559 5558
5596 5596 5595 5595 5594 5593 5593 5593 5592 5591 5591 5590 5590 5588 5587 5586 5584 5583 5582 5580 5579 5578 5576 5575 5574 5572 5571 5570 5568 5567 5566 5565 5563 5562 5560 5559 5557 5555 5553 5551 5550 5548 5547 5546
5591 5590 5590 5590 5589 5588 5588 5588 5587 5586 5585 5584 5583 5583 5581 5580 5578 5577 5576 5574 5573 5571 5570 5569 5567 5565 5563 5562 5560 5558 5557 5555 5554 5552 5550 5549 5547 5545 5543 5541 5539 5538 5537 5536
5586 5585 5585 5584 5583 5582 5583 5583 5582 5581 5580 5579 5578 5578 5575 5574 5573 5571 5570 5568 5567 5565 5564 5562 5560 5558 5556 5554 5552 5550 5548 5546 5545 5543 5541 5539 5537 5535 5533 5531 5529 5528 5527 5526
5582 5580 5579 5579 5579 5578 5580 5577 5576 5575 5575 5573 5572 5571 5569 5568 5567 5565 5564 5562 5561 5559 5558 5556 5553 5551 5549 5547 5544 5542 5540 5538 5536 5534 5532 5530 5528 5526 5524 5523 5521 5519 5518 5517
5577 5576 5575 5574 5573 5573 5574 5572 5571 5570 5570 5568 5566 5565 5564 5562 5561 5560 5558 5556 5555 5553 5551 5549 5547 5544 5542 5540 5537 5535 5533 5531 5529 5527 5524 5522 5520 5518 5516 5514 5513 5511 5509 5508
5572 5571 5571 5569 5568 5568 5569 5567 5565 5565 5564 5563 5561 5560 5558 5557 5556 5555 5553 5551 5549 5547 5545 5542 5540 5538 5535 5533 5530 5528 5525 5523 5521 5519 5517 5515 5513 5511 5509 5507 5505 5503 5502 5501
5567 5566 5566 5564 5563 5563 5563 5561 5561 5561 5560 5558 5556 5554 5553 5551 5550 5549 5547 5545 5543 5541 5538 5536 5534 5532 5529 5526 5523 5521 5518 5516 5514 5512 5510 5509 5506 5504 5502 5500 5498 5496 5495 5494
5562 5561 5561 5560 5559 5561 5558 5556 5556 5555 5553 5551 5550 5549 5547 5546 5544 5542 5541 5539 5537 5534 5532 5530 5527 5525 5523 5520 5517 5514 5512 5509 5507 5505 5503 5502 5499 5497 5495 5493 5491 5490 5489 5488
5557 5557 5556 5556 5557 5554 5552 5551 5550 5549 5547 5546 5545 5543 5541 5540 5538 5537 5535 5533 5531 5529 5526 5524 5522 5519 5517 5514 5511 5508 5505 5502 5500 5498 5497 5495 5493 5491 5489 5487 5486 5484 5483 5482
5553 5551 5550 5550 5550 5549 5547 5546 5545 5543 5542 5540 5539 5537 5536 5534 5533 5531 5529 5527 5525 5523 5521 5518 5516 5514 5511 5508 5505 5502 5499 5497 5495 5493 5491 5489 5487 5485 5483 5482 5480 5479 5478 5476
5548 5546 5545 5544 5544 5543 5542 5540 5539 5538 5536 5535 5533 5531 5530 5528 5527 5525 5523 5521 5519 5517 5515 5513 5511 5508 5505 5502 5499 5497 5494 5492 5490 5488 5486 5484 5482 5481 5479 5477 5476 5475 5473 5471
5542 5541 5540 5539 5538 5537 5536 5535 5534 5532 5531 5529 5528 5526 5524 5523 5521 5519 5517 5515 5513 5511 5509 5507 5505 5502 5500 5497 5495 5492 5489 5487 5486 5484 5482 5480 5479 5477 5475 5474 5472 5470 5469 5468